Weather History for Port Aransas, TX

Change the Weather History Date:

Monday, October 21, 2013

  Actual Average (KCRP) Record (KCRP)
Temperature  
Mean Temperature 73 °F 74 °F  
Max Temperature 78 °F 84 °F 94 °F (2004)
Min Temperature 68 °F 64 °F 43 °F (1964)
Degree Days  
Heating Degree Days 0 0  
Month to date heating degree days 0  
Since 1 July heating degree days 0  
Cooling Degree Days 8 9  
Month to date cooling degree days 231  
Year to date cooling degree days 3274  
Growing Degree Days 23 (Base 50)    
Moisture  
Dew Point 69 °F    
Average Humidity 84    
Maximum Humidity 94    
Minimum Humidity 69    
Precipitation  
Precipitation 1.22 in 0.13 in 2.47 in (1983)
Month to date precipitation 2.56  
Year to date precipitation 26.88  
Snow  
Snow 0.00 in - - ()
Month to date snowfall  
Since 1 July snowfall  
Since 1 September snowfall  
Snow Depth -    
Sea Level Pressure  
Sea Level Pressure 29.91 in    
Wind  
Wind Speed 7 mph (ESE)    
Max Wind Speed 16 mph    
Max Gust Speed 21 mph    
Visibility 9 miles    
Events Rain , Thunderstorm    
T = Trace of Precipitation, MM = Missing Value Source: NWS Daily Summary

Daily Weather History Graph

Daily Weather History Graph

Search for Another Location

Airport:

Trip Planner

Search our weather history database for the weather conditions in past years. The results will help you decide how hot, cold, wet, or windy it might be!

Date:

Astronomy

Oct. 21, 2013 Rise Set
Actual Time 7:32 AM CDT 6:53 PM CDT
Civil Twilight 7:08 AM CDT 7:16 PM CDT
Nautical Twilight 6:41 AM CDT 7:44 PM CDT
Astronomical Twilight 6:13 AM CDT 8:11 PM CDT
Moon 8:59 PM CDT (10/21) 9:56 AM CDT (10/21)
Length of Visible Light 12h 08m
Length of Day
11h 20m
Waning Gibbous, 92% of the Moon is Illuminated
Oct 21
Waning Gibbous
Oct 26
Last Quarter
Nov 3
New
Nov 9
First Quarter
Nov 17
Full

Hourly Weather History & Observations

Time (CDT) Temp. Dew Point Humidity Pressure Visibility Wind Dir Wind Speed Gust Speed Precip Events Conditions
12:15 AM 74.7 °F 63.7 °F 69% 29.94 in 10.0 mi SE 8.1 mph - N/A   Scattered Clouds
12:35 AM 74.7 °F 64.6 °F 71% 29.93 in 10.0 mi SE 10.4 mph - N/A   Scattered Clouds
12:55 AM 74.8 °F 64.6 °F 70% 29.93 in 10.0 mi SSE 9.2 mph - N/A   Clear
1:15 AM 74.8 °F 64.8 °F 71% 29.93 in 10.0 mi SE 8.1 mph - N/A   Scattered Clouds
1:35 AM 75.2 °F 65.5 °F 72% 29.93 in 10.0 mi SE 6.9 mph - N/A   Mostly Cloudy
1:55 AM 75.4 °F 66.2 °F 73% 29.93 in 10.0 mi ESE 6.9 mph - N/A   Overcast
2:15 AM 75.4 °F 66.4 °F 73% 29.93 in 10.0 mi SE 8.1 mph - N/A   Overcast
2:35 AM 75.6 °F 66.9 °F 74% 29.92 in 10.0 mi ESE 9.2 mph - N/A   Overcast
2:55 AM 75.7 °F 67.3 °F 75% 29.91 in 10.0 mi ESE 10.4 mph - N/A   Overcast
3:15 AM 75.7 °F 67.3 °F 75% 29.91 in 10.0 mi ESE 10.4 mph - N/A   Overcast
3:35 AM 76.1 °F 66.9 °F 73% 29.91 in 10.0 mi SE 9.2 mph - N/A   Overcast
3:55 AM 76.5 °F 66.6 °F 71% 29.90 in 10.0 mi ESE 9.2 mph - N/A   Overcast
4:15 AM 76.1 °F 66.9 °F 73% 29.90 in 10.0 mi SE 8.1 mph - N/A   Overcast
4:35 AM 76.1 °F 67.1 °F 74% 29.88 in 10.0 mi SE 8.1 mph - N/A Rain , Thunderstorm Thunderstorms and Rain
4:55 AM 73.9 °F 68.4 °F 83% 29.89 in 7.0 mi ESE 6.9 mph - 0.07 in Rain Light Rain
5:15 AM 73.6 °F 68.7 °F 85% 29.88 in 10.0 mi ESE 6.9 mph - 0.01 in   Light Drizzle
5:35 AM 73.9 °F 68.5 °F 83% 29.89 in 10.0 mi East 4.6 mph - 0.01 in   Overcast
5:55 AM 73.9 °F 68.9 °F 84% 29.89 in 5.0 mi East 5.8 mph - 0.04 in Rain Rain
6:15 AM 74.1 °F 69.1 °F 84% 29.89 in 10.0 mi East 5.8 mph - N/A   Overcast
6:35 AM 74.7 °F 69.1 °F 83% 29.88 in 10.0 mi East 8.1 mph - N/A   Overcast
6:55 AM 74.5 °F 68.9 °F 83% 29.88 in 10.0 mi East 9.2 mph - N/A   Overcast
7:15 AM 74.7 °F 69.1 °F 83% 29.88 in 10.0 mi East 9.2 mph 16.1 mph N/A   Overcast
7:35 AM 75.0 °F 69.3 °F 82% 29.88 in 10.0 mi East 9.2 mph - N/A   Overcast
7:55 AM 75.2 °F 69.3 °F 82% 29.90 in 10.0 mi East 8.1 mph - N/A   Overcast
8:15 AM 75.4 °F 69.3 °F 81% 29.91 in 10.0 mi ESE 10.4 mph - N/A   Overcast
8:35 AM 75.6 °F 69.8 °F 82% 29.92 in 10.0 mi ESE 10.4 mph - N/A   Overcast
8:55 AM 75.6 °F 69.8 °F 82% 29.92 in 10.0 mi ESE 9.2 mph - N/A   Overcast
9:15 AM 76.3 °F 70.2 °F 81% 29.92 in 10.0 mi ESE 10.4 mph - N/A   Overcast
9:35 AM 76.1 °F 70.3 °F 82% 29.93 in 10.0 mi ESE 9.2 mph - N/A   Overcast
9:55 AM 76.8 °F 71.1 °F 82% 29.93 in 10.0 mi ESE 9.2 mph - N/A   Overcast
10:15 AM 77.9 °F 71.8 °F 81% 29.92 in 10.0 mi ESE 10.4 mph - N/A   Overcast
10:35 AM 76.5 °F 71.1 °F 83% 29.92 in 10.0 mi SSE 10.4 mph - N/A   Mostly Cloudy
10:55 AM 77.2 °F 71.2 °F 82% 29.92 in 10.0 mi SSE 10.4 mph - N/A   Mostly Cloudy
11:15 AM 78.1 °F 71.8 °F 81% 29.92 in 10.0 mi SSE 9.2 mph - N/A   Mostly Cloudy
11:35 AM 77.4 °F 71.2 °F 81% 29.92 in 10.0 mi SE 6.9 mph - N/A   Mostly Cloudy
11:55 AM 76.3 °F 70.5 °F 82% 29.92 in 10.0 mi ESE 6.9 mph - N/A   Overcast
12:15 PM 76.8 °F 70.2 °F 80% 29.92 in 10.0 mi ESE 5.8 mph - N/A   Overcast
12:35 PM 77.0 °F 71.2 °F 82% 29.91 in 10.0 mi ESE 8.1 mph - N/A   Overcast
12:55 PM 77.4 °F 71.6 °F 82% 29.91 in 10.0 mi ESE 5.8 mph - N/A   Overcast
1:15 PM 77.2 °F 71.4 °F 82% 29.90 in 10.0 mi SE 6.9 mph - N/A   Overcast
1:35 PM 77.0 °F 70.9 °F 81% 29.89 in 10.0 mi ESE 9.2 mph - N/A   Overcast
1:55 PM 77.2 °F 70.7 °F 80% 29.88 in 10.0 mi East 5.8 mph - N/A   Overcast
2:15 PM 77.0 °F 71.1 °F 82% 29.88 in 10.0 mi East 8.1 mph - N/A   Overcast
2:35 PM 75.6 °F 71.8 °F 88% 29.87 in 7.0 mi East 6.9 mph - N/A Rain Light Rain
2:55 PM 74.8 °F 72.1 °F 91% 29.86 in 5.0 mi East 6.9 mph - 0.02 in   Drizzle
3:15 PM 74.5 °F 72.1 °F 92% 29.86 in 5.0 mi ENE 5.8 mph - 0.03 in   Drizzle
3:35 PM 73.9 °F 71.8 °F 93% 29.86 in 1.2 mi ENE 9.2 mph - 0.37 in Rain , Thunderstorm Heavy Thunderstorms and Rain
3:55 PM 74.7 °F 72.7 °F 94% 29.86 in 7.0 mi ENE 5.8 mph - 0.43 in Rain Light Rain
4:15 PM 73.9 °F 72.1 °F 94% 29.86 in 10.0 mi NE 8.1 mph - 0.01 in Thunderstorm Overcast
4:35 PM 69.8 °F 66.7 °F 90% 29.87 in 10.0 mi NNE 16.1 mph 20.7 mph 0.01 in Rain , Thunderstorm Light Thunderstorms and Rain
4:55 PM 68.7 °F 66.0 °F 91% 29.87 in 10.0 mi ENE 8.1 mph - 0.01 in Rain Light Rain
5:15 PM 69.3 °F 67.1 °F 93% 29.88 in 1.2 mi ENE 4.6 mph - 0.20 in Rain , Thunderstorm Heavy Thunderstorms and Rain
5:35 PM 68.9 °F 67.1 °F 94% 29.88 in 1.2 mi South 4.6 mph - 0.53 in Rain , Thunderstorm Thunderstorms and Rain
5:55 PM 68.2 °F 66.2 °F 93% 29.86 in 4.0 mi South 4.6 mph - 0.61 in Rain Rain
6:15 PM 68.4 °F 66.2 °F 93% 29.87 in 10.0 mi SSW 3.5 mph - N/A   Light Drizzle
6:35 PM 68.5 °F 66.4 °F 93% 29.87 in 5.0 mi Calm Calm - 0.02 in Rain Light Rain
6:55 PM 68.9 °F 66.6 °F 92% 29.89 in 10.0 mi NE 3.5 mph - 0.03 in Rain Light Rain
7:15 PM 68.9 °F 66.4 °F 92% 29.89 in 10.0 mi Calm Calm - N/A   Light Drizzle
7:35 PM 69.4 °F 66.9 °F 92% 29.91 in 10.0 mi Calm Calm - N/A   Mostly Cloudy
7:55 PM 69.4 °F 66.7 °F 91% 29.92 in 10.0 mi Calm Calm - N/A   Scattered Clouds
8:15 PM 69.8 °F 67.5 °F 92% 29.92 in 10.0 mi North 3.5 mph - 0.01 in   Scattered Clouds
8:35 PM 69.8 °F 67.5 °F 92% 29.92 in 10.0 mi North 5.8 mph - 0.01 in   Scattered Clouds
8:55 PM 70.0 °F 67.3 °F 91% 29.91 in 10.0 mi NNE 4.6 mph - 0.01 in   Overcast
9:15 PM 70.3 °F 68.0 °F 92% 29.91 in 10.0 mi Calm Calm - N/A   Overcast
9:35 PM 70.9 °F 68.5 °F 92% 29.93 in 10.0 mi NNE 4.6 mph - N/A   Mostly Cloudy
9:55 PM 71.1 °F 68.4 °F 91% 29.94 in 10.0 mi ENE 3.5 mph - N/A   Clear
10:15 PM 70.9 °F 68.0 °F 91% 29.95 in 10.0 mi Calm Calm - N/A   Clear
10:35 PM 70.7 °F 68.0 °F 91% 29.95 in 10.0 mi Calm Calm - N/A   Scattered Clouds
10:55 PM 70.2 °F 67.8 °F 92% 29.95 in 10.0 mi Calm Calm - N/A   Scattered Clouds
11:15 PM 69.8 °F 67.6 °F 93% 29.95 in 10.0 mi ENE 3.5 mph - N/A   Clear
11:35 PM 69.6 °F 67.5 °F 93% 29.95 in 10.0 mi ENE 3.5 mph - N/A   Clear
11:55 PM 69.4 °F 66.9 °F 92% 29.95 in 10.0 mi NNE 3.5 mph - N/A   Clear